Temp
-10 -10 -10 -10 -10 -10 -10 -10 -10 -10 -10 -10 -9 -9 -9 -9 -9 -9 -10 -10 -10 -9 -9 -9 -9 -9 -8 -9 -9 -8 -8 -8 -8 -8 -8 -8 -8 -8 -8 -8 -8 -7 -8
-10 -10 -10 -10 -10 -10 -10 -10 -10 -10 -9 -10 -10 -10 -10 -10 -10 -9 -9 -9 -9 -9 -9 -9 -9 -9 -8 -8 -8 -8 -8 -8 -8 -8 -8 -8 -8 -8 -8 -8 -8 -8 -8
-10 -10 -10 -10 -10 -10 -10 -10 -10 -10 -10 -10 -10 -10 -10 -10 -10 -10 -10 -9 -9 -9 -9 -9 -9 -9 -9 -9 -9 -9 -9 -9 -9 -9 -9 -9 -9 -9 -9 -9 -9 -9 -9
-10 -9 -10 -10 -10 -10 -10 -10 -10 -10 -10 -10 -10 -10 -10 -10 -10 -10 -10 -10 -10 -10 -9 -9 -9 -9 -9 -9 -9 -9 -9 -9 -9 -9 -9 -9 -9 -9 -8 -9 -8 -9 -9
-10 -10 -10 -10 -10 -10 -10 -10 -10 -10 -10 -10 -10 -10 -10 -10 -10 -10 -9 -9 -9 -9 -9 -9 -9 -9 -9 -9 -9 -9 -9 -9 -9 -9 -9 -9 -9 -8 -8 -8 -8 -9 -9
-10 -10 -10 -10 -10 -10 -10 -10 -10 -10 -10 -10 -10 -10 -10 -10 -10 -10 -10 -9 -9 -9 -9 -9 -10 -10 -10 -10 -9 -9 -9 -9 -9 -9 -9 -9 -9 -9 -8 -9 -9 -9 -9
-10 -10 -10 -10 -10 -10 -10 -10 -10 -10 -10 -10 -10 -10 -10 -10 -10 -10 -10 -10 -10 -10 -10 -10 -10 -10 -10 -10 -10 -10 -10 -9 -9 -9 -9 -9 -9 -9 -9 -8 -8 -8 -8
-10 -10 -10 -10 -10 -10 -10 -10 -10 -10 -10 -10 -9 -9 -9 -10 -10 -10 -10 -10 -10 -10 -10 -10 -10 -10 -10 -10 -10 -9 -10 -10 -9 -9 -9 -9 -9 -9 -9 -9 -8 -8 -9
-10 -10 -10 -10 -10 -10 -10 -9 -10 -10 -10 -10 -10 -9 -9 -9 -9 -10 -10 -10 -10 -10 -10 -10 -10 -9 -9 -9 -9 -9 -9 -9 -10 -9 -9 -9 -9 -9 -9 -9 -9 -9 -9
-10 -10 -10 -10 -10 -10 -10 -10 -10 -10 -10 -10 -10 -9 -9 -9 -9 -9 -10 -10 -10 -10 -10 -9 -9 -9 -9 -9 -9 -9 -9 -9 -9 -9 -9 -9 -9 -10 -10 -9 -9 -9 -9
-9 -10 -10 -10 -10 -10 -10 -10 -10 -10 -10 -10 -10 -9 -9 -9 -9 -9 -9 -10 -10 -10 -10 -10 -10 -9 -9 -9 -9 -9 -9 -9 -9 -9 -9 -9 -9 -9 -9 -10 -9 -9 -9
-10 -10 -10 -10 -10 -10 -10 -10 -10 -10 -10 -10 -10 -10 -10 -10 -9 -9 -9 -10 -10 -10 -9 -9 -9 -9 -9 -9 -9 -9 -9 -9 -9 -9 -9 -10 -10 -9 -10 -10 -10 -10 -9
-10 -10 -10 -10 -10 -10 -10 -10 -10 -10 -10 -10 -10 -10 -10 -10 -10 -10 -9 -9 -9 -9 -9 -9 -9 -9 -9 -9 -9 -9 -9 -9 -10 -10 -10 -10 -10 -9 -10 -10 -10 -10 -10
-11 -11 -10 -10 -10 -10 -10 -10 -10 -10 -10 -10 -9 -10 -10 -10 -10 -9 -9 -9 -9 -9 -9 -10 -10 -10 -10 -9 -9 -9 -9 -9 -9 -10 -10 -10 -9 -9 -10 -10 -10 -10 -10
-11 -11 -11 -10 -10 -10 -10 -10 -10 -10 -10 -10 -10 -10 -10 -10 -10 -10 -10 -10 -10 -10 -10 -10 -9 -9 -9 -9 -9 -10 -9 -9 -10 -10 -10 -9 -9 -9 -10 -10 -10 -10 -10
-11 -11 -11 -10 -10 -10 -10 -10 -10 -10 -10 -10 -10 -10 -10 -10 -10 -10 -10 -10 -10 -10 -10 -10 -10 -10 -10 -10 -10 -10 -10 -10 -9 -9 -9 -9 -9 -9 -10 -10 -10 -11 -11
-11 -11 -11 -10 -10 -10 -10 -10 -10 -10 -10 -10 -10 -10 -10 -10 -10 -10 -11 -10 -10 -10 -10 -10 -10 -10 -10 -10 -10 -10 -10 -10 -10 -10 -10 -10 -10 -10 -10 -10 -11 -11 -11
-11 -11 -10 -10 -10 -10 -10 -10 -10 -10 -10 -10 -10 -10 -10 -10 -11 -11 -11 -11 -11 -11 -11 -11 -11 -11 -11 -11 -10 -10 -10 -10 -10 -10 -10 -10 -10 -10 -10 -10 -11 -11 -11
-11 -10 -10 -10 -10 -10 -10 -10 -10 -10 -10 -10 -10 -11 -11 -11 -11 -11 -11 -11 -11 -11 -11 -11 -11 -11 -11 -11 -11 -11 -11 -10 -10 -10 -10 -10 -10 -10 -10 -10 -11 -11 -11
-10 -10 -10 -10 -10 -10 -10 -10 -11 -10 -10 -11 -11 -11 -11 -11 -11 -11 -11 -11 -11 -11 -11 -11 -11 -11 -11 -11 -11 -11 -11 -10 -10 -10 -10 -10 -10 -10 -11 -11 -11 -11 -11
-11 -10 -10 -10 -10 -10 -10 -10 -10 -11 -10 -10 -11 -11 -11 -10 -10 -11 -11 -10 -11 -11 -11 -11 -11 -11 -11 -11 -11 -11 -11 -11 -11 -11 -11 -11 -11 -11 -11 -11 -11 -11 -11
-11 -11 -11 -11 -11 -11 -11 -10 -10 -10 -10 -10 -11 -11 -11 -11 -11 -11 -10 -10 -11 -11 -11 -11 -12 -11 -11 -11 -11 -11 -11 -11 -11 -11 -11 -11 -11 -11 -11 -11 -11 -12 -12
-11 -11 -11 -11 -10 -11 -11 -10 -10 -10 -10 -10 -11 -11 -11 -11 -10 -10 -10 -11 -11 -11 -11 -11 -11 -11 -11 -11 -11 -11 -11 -11 -11 -11 -11 -12 -12 -12 -12 -12 -12 -13 -13
-11 -11 -11 -11 -11 -10 -11 -11 -11 -10 -10 -11 -11 -11 -11 -11 -11 -11 -11 -11 -11 -11 -12 -12 -12 -12 -12 -12 -12 -12 -12 -12 -12 -12 -12 -12 -12 -12 -12 -12 -13 -13 -13
-12 -11 -12 -12 -11 -11 -11 -11 -11 -11 -10 -11 -11 -11 -11 -11 -11 -11 -11 -11 -12 -12 -12 -12 -12 -12 -12 -12 -11 -12 -12 -12 -12 -12 -12 -12 -12 -12 -12 -13 -13 -13 -13
-11 -11 -12 -12 -12 -12 -11 -11 -11 -11 -12 -12 -11 -11 -12 -12 -12 -12 -12 -12 -12 -12 -12 -12 -12 -12 -12 -12 -12 -12 -12 -13 -13 -13 -13 -13 -13 -12 -12 -12 -13 -13 -13
Height
5857 5857 5856 5856 5856 5857 5857 5856 5856 5856 5856 5857 5857 5858 5859 5861 5862 5864 5866 5867 5870 5871 5874 5875 5875 5876 5877 5878 5880 5881 5882 5883 5883 5883 5883 5885 5886 5886 5886 5886 5887 5887 5887
5857 5857 5857 5857 5858 5857 5857 5858 5857 5857 5857 5857 5858 5858 5859 5860 5861 5863 5864 5866 5867 5868 5870 5872 5873 5874 5874 5875 5876 5877 5879 5880 5881 5882 5882 5883 5883 5885 5884 5886 5886 5886 5887
5856 5856 5857 5857 5858 5858 5858 5858 5858 5858 5859 5858 5858 5859 5859 5859 5859 5861 5862 5864 5866 5867 5868 5870 5870 5871 5872 5873 5874 5875 5876 5877 5878 5879 5880 5880 5881 5882 5883 5884 5884 5885 5885
5855 5855 5855 5855 5856 5857 5857 5857 5858 5858 5858 5859 5858 5858 5858 5859 5860 5861 5861 5862 5864 5865 5866 5867 5869 5870 5870 5871 5873 5873 5874 5875 5876 5876 5878 5878 5879 5879 5880 5881 5881 5882 5883
5852 5853 5853 5853 5854 5854 5855 5856 5857 5857 5858 5858 5858 5858 5858 5859 5860 5860 5861 5862 5863 5863 5865 5866 5867 5868 5869 5869 5870 5871 5872 5873 5875 5875 5876 5876 5876 5877 5878 5878 5880 5880 5880
5850 5850 5851 5851 5852 5852 5853 5854 5854 5855 5856 5856 5857 5857 5858 5858 5858 5859 5860 5860 5861 5862 5863 5864 5866 5866 5868 5868 5869 5870 5871 5872 5873 5873 5874 5874 5874 5875 5876 5876 5876 5877 5877
5849 5848 5848 5849 5849 5850 5850 5850 5850 5851 5852 5852 5854 5855 5855 5855 5856 5858 5857 5858 5859 5860 5861 5862 5864 5864 5865 5866 5866 5867 5868 5870 5870 5872 5870 5873 5873 5873 5873 5874 5874 5875 5876
5848 5847 5847 5847 5847 5847 5847 5847 5847 5847 5848 5848 5850 5851 5853 5854 5853 5854 5855 5855 5856 5857 5858 5860 5860 5861 5861 5862 5864 5865 5866 5866 5867 5868 5868 5869 5870 5871 5871 5871 5872 5872 5873
5846 5846 5845 5844 5844 5844 5844 5844 5844 5845 5845 5845 5846 5847 5848 5850 5850 5852 5853 5853 5854 5854 5855 5855 5856 5857 5858 5859 5860 5861 5862 5864 5863 5865 5865 5866 5867 5867 5867 5868 5869 5869 5870
5845 5844 5843 5842 5842 5841 5841 5841 5841 5841 5841 5842 5842 5843 5843 5845 5846 5847 5848 5849 5849 5850 5851 5852 5852 5853 5854 5855 5856 5857 5858 5859 5860 5861 5861 5862 5863 5863 5863 5863 5863 5865 5865
5842 5842 5841 5841 5840 5839 5838 5838 5837 5837 5837 5837 5837 5838 5839 5840 5841 5842 5843 5844 5845 5845 5846 5847 5848 5849 5850 5850 5851 5852 5852 5854 5855 5856 5856 5857 5858 5859 5858 5858 5859 5859 5860
5837 5838 5837 5837 5837 5836 5836 5835 5834 5834 5833 5833 5833 5833 5834 5835 5836 5837 5838 5839 5839 5840 5840 5841 5842 5844 5844 5845 5846 5847 5848 5849 5849 5849 5850 5851 5852 5853 5854 5853 5852 5853 5854
5832 5832 5831 5831 5831 5832 5831 5831 5830 5829 5829 5828 5828 5828 5829 5829 5830 5831 5832 5833 5833 5834 5835 5835 5836 5836 5837 5838 5839 5839 5840 5841 5842 5843 5843 5844 5844 5846 5847 5847 5846 5846 5848
5826 5824 5823 5824 5825 5825 5825 5825 5825 5825 5824 5823 5823 5824 5824 5824 5824 5824 5825 5825 5826 5827 5828 5828 5829 5829 5829 5830 5831 5831 5832 5833 5834 5834 5835 5835 5836 5837 5838 5840 5840 5840 5841
5818 5817 5816 5816 5816 5817 5818 5818 5818 5818 5818 5818 5818 5818 5818 5818 5818 5818 5818 5818 5819 5820 5819 5820 5821 5821 5821 5821 5822 5823 5823 5824 5825 5825 5826 5827 5828 5829 5831 5831 5833 5833 5834
5810 5809 5807 5807 5807 5808 5809 5810 5811 5811 5811 5812 5812 5812 5812 5811 5811 5811 5811 5811 5811 5812 5813 5813 5813 5813 5812 5812 5813 5813 5814 5815 5815 5816 5818 5818 5819 5820 5821 5823 5824 5825 5826
5802 5800 5799 5798 5797 5799 5800 5802 5802 5802 5802 5804 5805 5805 5805 5805 5804 5804 5804 5803 5804 5805 5804 5804 5804 5804 5803 5803 5803 5804 5804 5805 5805 5806 5807 5808 5810 5810 5811 5813 5814 5815 5816
5794 5792 5790 5790 5790 5790 5790 5790 5791 5793 5794 5795 5796 5796 5796 5796 5796 5796 5795 5795 5796 5796 5796 5796 5795 5795 5795 5795 5794 5794 5794 5794 5795 5797 5797 5797 5798 5799 5800 5802 5802 5805 5806
5785 5785 5784 5783 5783 5782 5782 5782 5783 5784 5785 5786 5786 5787 5787 5787 5787 5787 5787 5789 5789 5789 5789 5788 5788 5787 5786 5786 5786 5786 5786 5786 5787 5787 5787 5788 5788 5789 5789 5790 5792 5794 5795
5774 5774 5776 5775 5775 5774 5774 5774 5774 5775 5776 5776 5776 5778 5777 5777 5778 5778 5778 5779 5780 5780 5780 5780 5779 5779 5778 5777 5776 5776 5776 5777 5778 5778 5777 5777 5778 5778 5778 5779 5781 5783 5784
5763 5764 5765 5765 5766 5766 5766 5765 5765 5766 5767 5767 5767 5768 5767 5767 5767 5768 5769 5770 5770 5771 5772 5772 5771 5770 5769 5768 5767 5767 5767 5767 5767 5768 5768 5768 5768 5768 5768 5769 5770 5771 5772
5753 5754 5756 5756 5755 5756 5756 5756 5756 5756 5758 5757 5757 5757 5757 5757 5757 5758 5758 5759 5761 5762 5762 5762 5762 5762 5762 5762 5761 5759 5758 5758 5758 5758 5758 5758 5759 5758 5758 5759 5759 5760 5761
5746 5744 5744 5745 5745 5744 5745 5746 5747 5747 5747 5747 5747 5746 5745 5745 5746 5747 5748 5750 5750 5751 5751 5751 5751 5751 5750 5751 5751 5751 5749 5748 5747 5746 5747 5746 5746 5746 5748 5748 5748 5749 5749
5738 5737 5737 5735 5734 5734 5734 5736 5736 5736 5736 5736 5734 5733 5734 5735 5737 5739 5739 5740 5740 5740 5740 5740 5740 5741 5740 5740 5739 5740 5740 5741 5739 5738 5735 5735 5734 5734 5735 5736 5737 5737 5738
5728 5728 5727 5726 5724 5723 5723 5725 5726 5726 5726 5724 5722 5722 5722 5723 5725 5726 5728 5729 5729 5729 5729 5729 5728 5729 5729 5729 5729 5728 5729 5728 5728 5727 5726 5723 5722 5721 5722 5722 5723 5723 5723
5718 5717 5717 5716 5715 5713 5711 5711 5712 5713 5713 5712 5710 5711 5711 5711 5712 5714 5716 5717 5717 5717 5717 5716 5715 5715 5715 5715 5715 5715 5715 5715 5714 5714 5714 5713 5711 5709 5710 5710 5709 5710 5709
Wind_Speed
6 6 7 6 6 6 7 10 12 12 13 13 11 8 8 8 7 7 7 8 9 11 10 9 10 12 13 11 11 11 13 12 12 11 11 11 10 8 9 10 9 9 10
5 4 4 6 5 2 5 7 8 10 10 10 11 10 9 9 8 8 6 5 3 2 3 5 6 9 10 11 10 11 13 13 13 13 13 12 12 11 9 11 11 11 11
7 7 6 4 5 6 3 2 4 5 6 7 8 9 10 9 9 10 10 8 5 5 3 2 3 3 3 4 6 9 11 10 10 11 13 13 13 14 14 13 12 12 12
10 8 9 8 6 6 6 4 3 4 4 5 6 6 7 8 8 7 7 6 5 4 5 3 2 2 2 1 2 3 3 5 6 8 10 10 11 12 13 13 14 13 14
12 11 11 11 9 9 9 8 6 5 6 6 6 6 7 6 7 7 6 5 4 3 2 2 3 3 4 5 5 5 5 6 6 6 6 6 8 9 10 11 12 13 12
11 12 13 13 13 12 11 11 10 10 9 7 6 7 7 7 7 7 7 7 6 5 4 4 5 5 7 7 7 7 7 7 8 8 8 8 9 10 10 10 11 12 11
7 10 12 14 15 15 15 15 14 13 12 11 10 10 10 8 8 8 8 9 9 9 8 9 8 8 9 9 10 11 11 10 9 10 10 11 11 11 10 10 12 12 12
6 6 7 10 14 17 18 18 17 17 17 16 15 14 13 13 11 12 12 12 12 12 10 10 11 11 10 11 12 12 12 13 13 13 12 11 11 12 12 11 13 14 13
8 8 8 8 9 11 15 18 20 20 21 20 19 19 18 18 17 17 16 16 15 15 15 15 16 15 14 14 14 14 13 13 13 14 14 15 15 17 15 16 17 19 20
15 14 12 11 10 10 11 14 16 20 21 22 23 23 23 23 22 20 20 20 20 19 19 21 22 21 21 20 19 18 20 19 17 17 16 17 18 20 22 22 23 23 25
17 15 16 16 15 14 13 14 16 18 19 21 23 25 26 26 25 25 24 23 23 23 24 25 25 25 25 24 24 24 24 25 26 25 23 23 22 24 25 27 28 29 30
22 20 21 19 19 18 18 18 19 20 20 21 23 24 25 26 28 28 28 28 27 27 27 28 28 28 28 28 30 29 28 28 29 31 31 31 30 30 32 33 33 35 33
27 25 26 26 23 22 22 22 22 23 24 25 25 25 26 27 28 30 31 32 32 32 31 31 31 31 32 32 33 32 32 33 32 31 32 35 35 36 38 35 35 36 36
31 31 32 30 28 27 27 26 25 26 26 25 26 27 28 28 28 30 31 33 33 33 33 33 33 34 33 33 34 34 34 35 35 34 34 34 35 36 36 36 36 36 38
35 36 36 35 34 32 30 30 29 29 30 29 27 27 29 30 30 30 31 31 31 32 32 33 34 34 34 35 36 37 37 37 36 35 36 35 35 36 37 37 38 37 39
35 37 39 39 37 35 34 33 33 32 33 33 31 30 30 31 31 32 32 31 31 31 32 32 31 31 32 33 36 37 38 38 38 38 38 38 39 39 38 39 39 39 40
33 37 39 40 38 36 35 35 35 36 37 35 35 33 31 30 32 34 34 34 33 32 32 33 31 32 32 33 34 36 36 37 38 39 40 40 40 41 41 41 41 42 44
36 36 36 36 36 37 36 37 38 38 37 36 36 35 34 33 33 35 36 35 33 32 31 32 32 35 36 36 36 36 36 37 38 39 40 41 42 42 42 43 41 43 43
38 37 35 36 36 38 37 38 39 37 36 35 37 36 37 36 36 37 37 36 35 34 34 35 36 38 40 41 41 40 40 40 40 40 42 43 43 43 43 43 45 45 46
42 39 38 40 39 40 39 37 36 35 35 37 39 39 40 40 39 37 38 37 37 36 36 36 38 40 41 41 42 43 44 43 42 42 42 42 43 44 44 43 43 43 42
46 43 40 39 39 40 40 38 38 37 36 40 43 41 42 42 41 40 38 39 37 37 35 37 39 41 41 41 40 40 40 42 43 44 43 43 44 43 43 44 44 44 43
42 43 42 41 42 42 43 42 40 38 39 40 41 41 41 41 39 38 41 41 39 36 36 38 38 39 39 40 40 40 40 40 41 41 43 44 45 45 45 44 44 44 45
42 44 43 44 45 45 46 45 44 42 42 40 37 40 42 43 43 44 44 41 39 39 40 39 39 38 39 39 40 42 42 41 41 41 42 43 44 44 46 45 46 46 47
40 40 41 40 42 45 46 46 45 46 45 44 43 45 43 43 43 42 41 42 42 42 40 41 41 41 41 40 39 39 41 41 40 40 42 43 45 45 46 45 46 47 48
44 45 41 42 41 43 46 47 48 48 47 48 49 49 48 47 46 46 45 45 44 43 42 43 44 42 44 45 45 44 44 44 42 41 43 45 46 46 47 47 48 49 50
48 45 45 46 46 44 41 44 47 49 48 49 50 51 51 48 45 44 44 44 45 44 44 45 48 50 50 49 49 50 48 47 45 41 42 47 48 49 50 51 51 53 54
Wind_Direction
5 23 27 39 79 90 90 101 114 116 116 117 112 100 114 128 158 161 165 168 193 194 212 218 218 225 239 247 249 238 241 238 239 242 249 249 256 257 261 265 265 258 252
330 338 359 9 9 56 109 92 96 107 114 115 124 118 113 116 127 140 137 185 181 177 210 232 239 241 248 256 263 265 260 260 259 260 261 267 272 272 271 270 272 273 273
303 312 308 305 319 336 332 166 124 110 112 114 118 134 136 130 122 122 126 126 124 129 132 171 201 221 221 254 268 270 274 276 274 276 281 281 283 286 285 282 283 280 275
280 288 297 295 287 283 295 314 243 200 184 162 149 145 139 145 143 147 135 137 147 145 141 161 241 257 285 312 284 283 273 272 275 278 280 288 291 290 288 290 288 286 285
271 277 281 284 285 285 275 268 268 258 236 216 203 179 172 174 164 155 153 153 150 148 176 198 232 252 275 284 282 288 290 291 286 275 273 275 274 275 286 297 301 302 300
278 270 268 269 275 278 279 277 265 256 264 263 251 236 226 216 213 207 195 193 193 206 223 246 256 265 273 274 285 285 280 270 265 265 271 271 267 274 270 278 279 279 281
310 284 275 269 266 268 272 274 273 271 268 268 270 269 264 252 244 241 241 241 241 244 251 251 258 265 268 269 272 274 277 272 269 266 269 268 265 267 278 286 290 293 296
319 309 292 280 269 266 264 266 269 272 270 267 264 264 259 256 255 259 258 256 260 265 268 271 273 273 275 278 267 264 258 263 263 260 255 261 255 257 268 280 288 291 295
306 302 295 284 277 271 265 264 265 265 265 265 266 265 261 259 256 253 252 254 254 257 261 267 274 277 278 275 274 262 259 261 263 267 272 271 266 262 272 283 291 296 296
300 296 293 285 274 269 268 266 266 266 264 262 261 260 261 257 256 259 263 264 263 262 263 264 267 270 272 272 266 262 264 263 261 264 268 266 270 268 273 281 285 288 293
294 295 294 285 280 277 275 272 270 267 266 267 265 262 260 260 257 254 255 259 261 262 262 263 265 267 269 270 270 267 262 262 261 260 262 264 267 269 270 277 281 287 288
282 283 281 282 280 278 277 273 272 271 269 267 264 264 263 263 261 260 261 264 264 264 264 264 264 264 266 265 263 262 262 261 261 261 264 264 264 270 271 271 277 283 282
276 276 274 273 273 275 275 275 274 272 269 266 265 266 267 263 261 260 261 262 263 262 262 263 262 263 263 263 264 264 265 266 267 266 264 263 265 267 268 269 272 278 279
276 271 267 269 269 269 268 272 273 271 270 269 265 265 264 263 262 262 261 262 263 263 263 264 264 263 263 264 264 264 265 267 268 266 265 265 265 266 267 269 270 269 272
271 268 270 270 268 266 266 267 268 269 269 269 271 269 267 265 265 266 266 266 267 267 267 266 265 265 265 265 265 265 265 266 266 268 268 268 268 268 269 268 268 265 265
269 268 268 268 267 265 265 265 266 267 266 266 268 271 270 266 264 262 262 263 264 265 265 265 265 266 265 266 266 266 265 264 265 266 268 268 267 268 269 268 266 266 265
274 269 266 266 268 271 270 268 265 263 263 265 267 271 273 268 265 262 260 260 262 263 266 269 271 272 272 271 270 269 268 267 265 266 267 268 269 269 272 272 270 268 268
272 272 270 271 270 270 269 265 260 261 262 265 266 271 274 270 268 262 261 260 260 262 266 268 271 273 274 273 271 270 270 270 271 271 271 270 270 271 272 272 272 269 267
269 269 270 270 270 270 269 267 265 264 263 263 265 268 271 269 267 262 260 261 259 259 262 266 269 270 270 270 270 271 272 273 273 272 272 272 272 273 273 273 273 271 269
272 272 271 271 271 272 269 267 265 263 265 263 265 266 267 268 267 266 262 260 259 261 261 264 266 267 267 269 270 271 272 273 273 274 273 274 275 274 273 273 272 271 269
268 269 273 273 273 270 269 267 264 264 265 266 267 268 269 267 265 264 261 256 257 258 261 263 264 265 267 269 271 272 274 273 272 273 274 273 272 272 271 271 271 270 270
268 270 270 269 270 267 265 263 265 267 271 272 271 268 266 267 265 259 253 252 256 259 263 264 265 267 273 274 273 273 273 274 275 276 277 277 276 274 271 270 269 269 269
271 270 270 265 264 264 263 264 263 266 268 269 267 264 265 263 260 255 255 255 257 261 264 266 267 267 270 274 277 277 275 275 277 279 278 276 276 274 272 269 267 267 267
281 279 277 270 266 265 262 260 258 260 265 266 263 262 265 265 266 265 259 257 260 265 267 269 271 272 274 275 278 279 279 279 280 281 281 280 276 274 273 271 270 270 269
284 281 277 273 266 260 261 264 264 262 262 264 264 264 263 263 262 261 261 261 263 265 269 273 275 277 278 280 281 281 281 280 281 281 279 280 278 274 271 270 271 270 269
278 279 278 275 273 265 260 259 262 264 263 261 260 261 264 266 266 265 264 264 264 270 272 275 278 277 277 277 277 278 280 280 282 279 276 275 275 274 272 270 269 268 269